FW8607 Weather Reports


time (UTC)temp
C
wind
direction
speed
KPH
gust
KPH
rain 1hr
cm
rain 24hr
cm
rain mn
cm
humidity
%
barometer
mb
20260831083040 19 0.0 0.0 0.00 0.00 0.00 93 1012.6
20260831080020 19 0.0 0.0 0.00 0.00 0.00 92 1012.6
20260831073019 19 0.0 0.0 0.00 0.00 0.00 92 1012.7
20260831070019 19 0.0 0.0 0.00 0.00 0.00 92 1012.7
20260831063019 20 0.0 0.0 0.00 0.00 0.00 91 1012.8
20260831060019 20 0.0 3.2 0.00 0.00 0.00 91 1012.4
20260831053019 20 270 4.8 6.4 0.00 0.00 0.00 90 1012.2
20260831050019 20 270 4.8 11.3 0.00 0.00 0.00 89 1011.9
20260831043039 20 270 8.0 12.9 0.00 0.00 0.00 87 1011.6
20260831040039 21 270 6.4 12.9 0.00 0.00 0.00 85 1011.4
20260831033019 21 270 6.4 11.3 0.00 0.00 0.00 83 1011.1
20260831030039 22 270 8.0 12.9 0.00 0.00 0.00 81 1010.6
20260831023038 23 270 6.4 12.9 0.00 0.00 0.00 76 1010.6
20260831020018 24 270 9.7 16.1 0.00 0.00 0.00 72 1010.8
20260831013039 26 248 11.3 17.7 0.00 0.00 0.00 67 1010.6
20260831010019 26 248 12.9 22.5 0.00 0.00 0.00 62 1010.8
20260831003018 27 248 16.1 25.7 0.00 0.00 0.00 62 1010.8
20260831000018 27 248 17.7 33.8 0.00 0.00 0.00 62 1010.7
20260830233018 28 248 17.7 29.0 0.00 0.00 0.00 58 1010.7
20260830230018 28 248 19.3 29.0 0.00 0.00 0.00 57 1010.8
20260830223018 29 248 17.7 29.0 0.00 0.00 0.00 53 1011.0
20260830220018 29 248 17.7 32.2 0.00 0.00 0.00 52 1011.3
20260830213038 30 248 16.1 27.4 0.00 0.00 0.00 51 1011.6
20260830210018 30 248 17.7 30.6 0.00 0.00 0.00 51 1011.7
20260830203018 30 248 19.3 32.2 0.00 0.00 0.00 54 1011.9
20260830200017 29 248 19.3 32.2 0.00 0.00 0.00 58 1012.1
20260830193017 30 248 17.7 27.4 0.00 0.00 0.00 60 1012.3
20260830190017 30 270 16.1 25.7 0.00 0.00 0.00 58 1012.4
20260830183019 29 270 16.1 24.1 0.00 0.00 0.00 60 1012.2
20260830180020 28 270 14.5 24.1 0.00 0.00 0.00 64 1012.5
20260830173038 28 270 9.7 17.7 0.00 0.00 0.00 68 1012.3
20260830170018 26 293 4.8 14.5 0.00 0.00 0.00 77 1012.2
20260830163018 22 293 4.8 12.9 0.00 0.00 0.00 94 1011.8
20260830160039 21 270 3.2 9.7 0.00 0.00 0.00 97 1011.8
20260830153018 20 270 3.2 9.7 0.00 0.00 0.00 96 1011.7
20260830150018 20 270 4.8 11.3 0.00 0.00 0.00 96 1011.9
20260830143018 20 203 3.2 11.3 0.00 0.00 0.00 96 1011.8
20260830140018 20 0.0 4.8 0.00 0.00 0.00 96 1011.7
20260830133018 20 203 1.6 4.8 0.00 0.00 0.00 96 1011.5
20260830130018 20 248 1.6 4.8 0.00 0.00 0.00 96 1011.5
20260830123018 20 270 4.8 12.9 0.00 0.00 0.00 96 1011.5
20260830120017 20 248 4.8 11.3 0.00 0.00 0.00 96 1011.3
20260830113038 20 225 3.2 8.0 0.00 0.00 0.00 95 1011.3
20260830110017 20 113 4.8 12.9 0.00 0.00 0.00 95 1011.6
20260830103017 20 113 6.4 14.5 0.00 0.00 0.00 94 1011.3
20260830100039 20 248 3.2 9.7 0.00 0.00 0.00 93 1011.5
20260830093020 21 270 4.8 9.7 0.00 0.00 0.00 93 1011.3
20260830090019 21 248 3.2 9.7 0.00 0.00 0.00 91 1011.3